Starlink 4570

operational
NORAD ID: 53690 Int'l Des: 2022-105 Owner: SPXS Country: US Constellation: starlink
LEOCIRCULARRETROGRADESSO

About Starlink 4570

Description loading...

Live Position

Loading 3D Globe...

Upcoming Passes

Altitude History

Altitude vs Time

uPlot chart will show altitude changes over time

Two-Line Element Set

1 53690U 22105AU 26062.14267270 .00000492 00000-0 42858-4 0 9994
2 53690 97.6027 303.7517 0003349 49.9315 310.2203 15.01261949192250
Epoch: Mar 3, 2026 • Age: 28 hours

Current Status

Altitude 563.6 km
Velocity 7.58 km/s
Sub-Earth Point 21.30°N, 87.14°E
Launch Date Aug 31, 2022
Age 3.5 years
Type internet

Technical Details

Classification Payload
Mass 300.00 kg
Dry Mass 290.00 kg
Total Mass 300.00 kg
Length 0.20 m
Diameter 2.80 m
Span 9.00 m
Shape Box + pan
Manufacturer SPXS
Bus Type Starlink
Phase Status In Orbit
Owner/State SPXS/US

Large Constellations

Loading constellations...